Precipitable_Water
0.49 0.48 0.48 0.49 0.52 0.49 0.44 0.42 0.44 0.50 0.54 0.58 0.61 0.57 0.69 0.76 0.81 0.82 0.84 1.15 1.03 0.79 0.69 0.70 0.60 0.53 0.55 0.68 0.58 0.61 0.54 0.52 0.49 0.33 0.29 0.30 0.29 0.32 0.27 0.31 0.29 0.24 0.24 0.24 0.29 0.25 0.18 0.34 0.31 0.23 0.38 0.41 0.37 0.35
0.41 0.40 0.40 0.42 0.42 0.40 0.39 0.43 0.49 0.56 0.61 0.63 0.63 0.67 0.70 0.78 0.84 0.94 0.84 0.99 1.10 1.01 0.80 0.86 0.79 0.71 0.67 0.79 0.65 0.63 0.54 0.50 0.49 0.41 0.41 0.42 0.31 0.33 0.28 0.21 0.34 0.26 0.31 0.29 0.28 0.28 0.40 0.35 0.34 0.37 0.39 0.36 0.38 0.41
0.47 0.47 0.46 0.44 0.44 0.44 0.48 0.55 0.59 0.57 0.60 0.63 0.74 0.76 0.78 0.90 0.97 0.97 0.88 1.06 1.13 0.85 0.72 0.68 0.68 0.74 0.81 0.86 0.94 0.60 0.62 0.64 0.56 0.63 0.51 0.44 0.30 0.37 0.23 0.24 0.35 0.36 0.41 0.31 0.32 0.30 0.36 0.38 0.39 0.42 0.46 0.46 0.49 0.51
0.50 0.50 0.48 0.48 0.51 0.56 0.59 0.61 0.62 0.67 0.75 0.79 0.82 0.84 0.92 0.95 0.95 1.00 0.99 1.13 1.11 0.71 0.56 0.63 0.81 0.66 0.76 0.80 0.82 0.86 0.73 0.74 0.71 0.66 0.47 0.37 0.33 0.44 0.33 0.34 0.36 0.40 0.41 0.33 0.32 0.36 0.39 0.42 0.50 0.52 0.53 0.56 0.53 0.56
0.64 0.64 0.66 0.66 0.66 0.70 0.72 0.72 0.73 0.77 0.83 0.85 0.88 0.91 0.95 0.94 0.94 1.07 1.00 1.10 1.09 0.67 0.52 0.61 0.72 0.71 0.67 0.66 0.62 0.73 0.70 0.62 0.59 0.50 0.40 0.40 0.48 0.45 0.46 0.43 0.35 0.43 0.37 0.32 0.32 0.45 0.42 0.48 0.53 0.55 0.51 0.49 0.51 0.53
0.78 0.80 0.79 0.79 0.77 0.77 0.82 0.84 0.81 0.82 0.90 0.94 0.95 0.92 0.93 0.96 1.01 1.01 0.85 0.94 0.98 0.87 0.58 0.47 0.74 0.69 0.67 0.65 0.58 0.59 0.63 0.63 0.61 0.57 0.52 0.54 0.58 0.50 0.37 0.34 0.46 0.49 0.48 0.50 0.47 0.52 0.53 0.54 0.52 0.53 0.51 0.53 0.56 0.55
0.90 0.91 0.92 0.89 0.87 0.87 0.88 0.89 0.87 0.90 0.93 0.91 0.91 0.93 0.95 1.00 1.01 0.91 0.73 0.83 0.93 0.88 0.63 0.50 0.54 0.72 0.76 0.69 0.65 0.61 0.66 0.67 0.68 0.58 0.54 0.54 0.51 0.58 0.44 0.37 0.50 0.51 0.51 0.52 0.51 0.51 0.49 0.53 0.49 0.54 0.55 0.55 0.55 0.55
0.94 0.97 0.95 0.95 0.95 0.93 0.91 0.92 0.91 0.90 0.90 0.91 0.93 0.96 1.00 1.01 1.08 0.91 0.89 0.91 0.89 0.73 0.75 0.52 0.53 0.59 0.76 0.64 0.57 0.69 0.62 0.66 0.65 0.58 0.61 0.56 0.56 0.59 0.44 0.52 0.53 0.54 0.54 0.51 0.49 0.53 0.53 0.56 0.58 0.56 0.56 0.54 0.51 0.51
0.95 0.98 0.98 0.97 0.97 0.95 0.95 0.93 0.92 0.92 0.92 0.93 0.96 1.00 0.99 0.94 0.86 0.82 0.93 0.93 0.86 0.72 0.58 0.58 0.49 0.43 0.72 0.63 0.64 0.64 0.69 0.54 0.66 0.55 0.57 0.60 0.53 0.44 0.50 0.52 0.51 0.53 0.50 0.49 0.53 0.55 0.55 0.52 0.52 0.52 0.51 0.51 0.50 0.50
0.97 0.95 0.96 0.95 0.98 0.99 0.99 0.98 0.98 0.97 0.96 0.96 0.93 0.79 0.73 0.88 0.97 0.90 0.81 0.70 0.66 0.74 0.64 0.53 0.69 0.52 0.62 0.60 0.57 0.57 0.62 0.53 0.47 0.56 0.65 0.51 0.45 0.53 0.57 0.55 0.52 0.52 0.54 0.56 0.49 0.48 0.50 0.49 0.49 0.50 0.50 0.52 0.51 0.49
0.93 0.95 0.94 0.95 0.94 0.96 0.95 0.97 0.98 0.97 0.97 0.87 0.75 0.73 0.92 0.95 0.83 0.71 0.57 0.55 0.58 0.54 0.55 0.57 0.62 0.56 0.73 0.58 0.56 0.65 0.54 0.55 0.40 0.47 0.45 0.38 0.35 0.43 0.50 0.51 0.55 0.57 0.58 0.57 0.56 0.53 0.53 0.52 0.50 0.50 0.49 0.48 0.42 0.40
0.90 0.91 0.92 0.94 0.91 0.89 0.93 0.95 0.96 0.92 0.86 0.83 0.79 0.88 0.84 0.72 0.65 0.51 0.49 0.53 0.51 0.48 0.53 0.49 0.51 0.57 0.61 0.68 0.55 0.58 0.44 0.44 0.32 0.47 0.38 0.30 0.37 0.47 0.51 0.52 0.54 0.54 0.54 0.51 0.52 0.51 0.51 0.52 0.51 0.48 0.45 0.40 0.38 0.38
0.91 0.90 0.91 0.90 0.90 0.89 0.87 0.87 0.85 0.86 0.87 0.81 0.71 0.64 0.62 0.57 0.46 0.41 0.37 0.45 0.44 0.52 0.54 0.54 0.48 0.53 0.55 0.55 0.47 0.44 0.36 0.35 0.47 0.36 0.32 0.37 0.45 0.50 0.52 0.52 0.50 0.51 0.51 0.51 0.52 0.52 0.51 0.49 0.47 0.42 0.38 0.40 0.39 0.35
0.88 0.88 0.89 0.88 0.88 0.87 0.87 0.85 0.83 0.81 0.73 0.61 0.55 0.46 0.48 0.45 0.45 0.46 0.47 0.49 0.53 0.53 0.53 0.53 0.49 0.48 0.52 0.45 0.45 0.35 0.41 0.43 0.33 0.30 0.32 0.43 0.48 0.50 0.51 0.51 0.51 0.50 0.50 0.48 0.49 0.48 0.45 0.42 0.40 0.39 0.37 0.35 0.31 0.26
0.85 0.86 0.85 0.84 0.84 0.85 0.86 0.86 0.85 0.80 0.69 0.59 0.58 0.44 0.46 0.52 0.54 0.54 0.56 0.55 0.58 0.60 0.57 0.53 0.53 0.52 0.47 0.44 0.47 0.43 0.38 0.34 0.36 0.34 0.41 0.47 0.50 0.53 0.52 0.53 0.53 0.50 0.50 0.51 0.49 0.44 0.42 0.41 0.39 0.35 0.32 0.28 0.23 0.22
0.79 0.80 0.78 0.82 0.82 0.83 0.87 0.87 0.84 0.79 0.69 0.59 0.54 0.48 0.52 0.51 0.51 0.54 0.55 0.54 0.61 0.61 0.62 0.59 0.50 0.45 0.43 0.45 0.41 0.38 0.36 0.34 0.38 0.44 0.49 0.53 0.54 0.56 0.55 0.53 0.51 0.51 0.51 0.49 0.45 0.42 0.40 0.38 0.34 0.29 0.25 0.23 0.24 0.23
0.65 0.66 0.74 0.77 0.78 0.79 0.82 0.76 0.72 0.63 0.57 0.52 0.48 0.56 0.54 0.53 0.50 0.53 0.57 0.58 0.67 0.59 0.49 0.50 0.41 0.39 0.47 0.39 0.36 0.42 0.37 0.43 0.48 0.51 0.55 0.56 0.54 0.54 0.54 0.53 0.52 0.50 0.47 0.45 0.42 0.39 0.35 0.32 0.28 0.25 0.22 0.23 0.23 0.23
0.49 0.57 0.60 0.60 0.62 0.60 0.65 0.71 0.60 0.53 0.46 0.50 0.45 0.49 0.53 0.54 0.52 0.54 0.57 0.60 0.58 0.53 0.51 0.45 0.51 0.41 0.38 0.36 0.37 0.44 0.48 0.51 0.53 0.52 0.53 0.54 0.53 0.52 0.51 0.48 0.47 0.45 0.42 0.39 0.36 0.33 0.31 0.29 0.27 0.25 0.24 0.24 0.23 0.23
0.43 0.47 0.47 0.48 0.47 0.45 0.45 0.50 0.57 0.44 0.45 0.49 0.50 0.52 0.52 0.52 0.55 0.56 0.57 0.59 0.60 0.61 0.55 0.50 0.41 0.37 0.38 0.42 0.42 0.46 0.48 0.48 0.45 0.47 0.48 0.49 0.49 0.47 0.45 0.44 0.43 0.41 0.38 0.36 0.34 0.32 0.30 0.28 0.26 0.25 0.25 0.24 0.23 0.23
0.27 0.31 0.35 0.33 0.31 0.28 0.30 0.36 0.48 0.44 0.41 0.45 0.49 0.46 0.46 0.47 0.49 0.50 0.51 0.52 0.49 0.46 0.41 0.38 0.37 0.39 0.41 0.43 0.46 0.45 0.45 0.45 0.41 0.38 0.38 0.41 0.43 0.42 0.41 0.41 0.38 0.37 0.35 0.34 0.33 0.32 0.30 0.29 0.28 0.26 0.25 0.24 0.22 0.20
0.17 0.20 0.24 0.25 0.25 0.27 0.29 0.30 0.31 0.35 0.35 0.33 0.38 0.36 0.34 0.39 0.37 0.39 0.40 0.42 0.35 0.33 0.31 0.34 0.36 0.38 0.42 0.42 0.42 0.43 0.42 0.43 0.40 0.39 0.36 0.36 0.40 0.40 0.39 0.38 0.38 0.37 0.35 0.34 0.31 0.30 0.29 0.26 0.25 0.24 0.23 0.23 0.21 0.20
0.17 0.21 0.19 0.21 0.19 0.22 0.25 0.31 0.28 0.29 0.28 0.29 0.28 0.28 0.26 0.25 0.26 0.29 0.34 0.27 0.25 0.27 0.31 0.31 0.32 0.33 0.33 0.34 0.36 0.38 0.40 0.40 0.41 0.41 0.41 0.39 0.35 0.34 0.34 0.35 0.34 0.31 0.31 0.30 0.29 0.28 0.27 0.25 0.23 0.22 0.21 0.20 0.20 0.19
0.19 0.19 0.17 0.17 0.11 0.14 0.16 0.25 0.18 0.22 0.16 0.19 0.23 0.19 0.19 0.21 0.24 0.29 0.21 0.22 0.24 0.28 0.30 0.30 0.30 0.31 0.30 0.32 0.33 0.34 0.36 0.35 0.34 0.35 0.35 0.35 0.34 0.34 0.33 0.32 0.32 0.30 0.28 0.27 0.27 0.25 0.24 0.23 0.22 0.20 0.20 0.18 0.15 0.14
0.21 0.16 0.13 0.14 0.15 0.13 0.19 0.16 0.20 0.19 0.19 0.18 0.17 0.16 0.18 0.20 0.26 0.20 0.17 0.20 0.23 0.26 0.26 0.27 0.28 0.28 0.27 0.27 0.26 0.28 0.31 0.33 0.32 0.32 0.33 0.31 0.29 0.29 0.30 0.29 0.29 0.28 0.27 0.26 0.25 0.23 0.22 0.21 0.19 0.17 0.14 0.12 0.12 0.11
0.11 0.15 0.17 0.14 0.20 0.16 0.15 0.16 0.17 0.17 0.15 0.18 0.17 0.17 0.19 0.24 0.18 0.17 0.17 0.20 0.22 0.22 0.24 0.26 0.25 0.25 0.24 0.24 0.25 0.26 0.29 0.29 0.27 0.27 0.29 0.30 0.29 0.28 0.27 0.26 0.25 0.24 0.23 0.21 0.20 0.19 0.17 0.15 0.13 0.12 0.10 0.10 0.09 0.09
0.11 0.16 0.15 0.16 0.16 0.16 0.16 0.14 0.15 0.16 0.17 0.17 0.18 0.21 0.23 0.20 0.16 0.15 0.18 0.20 0.21 0.22 0.23 0.23 0.23 0.23 0.23 0.24 0.24 0.24 0.25 0.29 0.28 0.25 0.26 0.26 0.26 0.25 0.23 0.21 0.21 0.20 0.19 0.17 0.15 0.13 0.12 0.11 0.10 0.09 0.09 0.09 0.10 0.10
0.13 0.15 0.19 0.24 0.21 0.20 0.18 0.20 0.21 0.19 0.16 0.16 0.18 0.18 0.18 0.16 0.14 0.18 0.22 0.23 0.23 0.24 0.25 0.25 0.25 0.23 0.23 0.23 0.24 0.25 0.26 0.25 0.24 0.23 0.23 0.22 0.20 0.19 0.17 0.14 0.13 0.13 0.13 0.13 0.12 0.10 0.09 0.09 0.09 0.09 0.09 0.10 0.11 0.11
0.18 0.19 0.14 0.18 0.18 0.19 0.15 0.15 0.15 0.14 0.16 0.19 0.19 0.14 0.13 0.14 0.14 0.19 0.21 0.24 0.24 0.24 0.24 0.24 0.24 0.23 0.23 0.22 0.23 0.23 0.22 0.22 0.19 0.18 0.18 0.17 0.17 0.17 0.16 0.15 0.14 0.13 0.12 0.11 0.10 0.10 0.10 0.10 0.09 0.09 0.10 0.09 0.09 0.10
0.16 0.18 0.17 0.12 0.14 0.15 0.15 0.14 0.15 0.17 0.19 0.18 0.15 0.14 0.14 0.17 0.19 0.20 0.21 0.23 0.25 0.23 0.21 0.21 0.21 0.22 0.21 0.20 0.18 0.17 0.15 0.14 0.13 0.11 0.12 0.12 0.13 0.14 0.13 0.12 0.11 0.11 0.11 0.11 0.11 0.11 0.11 0.10 0.10 0.09 0.09 0.09 0.09 0.10
0.13 0.17 0.13 0.13 0.12 0.13 0.15 0.18 0.17 0.19 0.19 0.19 0.18 0.16 0.16 0.17 0.19 0.21 0.21 0.20 0.19 0.19 0.19 0.19 0.19 0.18 0.16 0.16 0.15 0.15 0.15 0.15 0.13 0.12 0.11 0.10 0.10 0.11 0.11 0.11 0.11 0.11 0.11 0.10 0.10 0.10 0.10 0.10 0.09 0.09 0.09 0.09 0.09 0.09
0.17 0.17 0.14 0.14 0.13 0.15 0.17 0.19 0.20 0.19 0.18 0.16 0.18 0.15 0.14 0.15 0.16 0.18 0.18 0.18 0.18 0.18 0.17 0.17 0.16 0.16 0.15 0.14 0.14 0.14 0.14 0.15 0.13 0.12 0.11 0.10 0.11 0.11 0.11 0.11 0.11 0.11 0.10 0.10 0.09 0.09 0.08 0.08 0.08 0.08 0.08 0.08 0.08 0.08
0.14 0.12 0.11 0.11 0.14 0.16 0.17 0.16 0.16 0.17 0.17 0.15 0.13 0.14 0.14 0.14 0.12 0.14 0.17 0.18 0.17 0.16 0.16 0.16 0.15 0.14 0.15 0.15 0.15 0.14 0.13 0.12 0.12 0.12 0.11 0.10 0.10 0.10 0.10 0.10 0.10 0.10 0.10 0.09 0.09 0.09 0.08 0.08 0.08 0.08 0.08 0.08 0.08 0.08
0.13 0.13 0.13 0.13 0.13 0.14 0.16 0.14 0.14 0.13 0.14 0.13 0.12 0.14 0.13 0.13 0.11 0.14 0.17 0.18 0.16 0.15 0.15 0.15 0.16 0.16 0.15 0.14 0.12 0.12 0.12 0.12 0.11 0.11 0.11 0.10 0.09 0.09 0.09 0.09 0.09 0.09 0.09 0.09 0.09 0.08 0.08 0.08 0.08 0.08 0.08 0.08 0.08 0.07
Wind_Speed
30 33 33 32 31 33 33 31 32 34 39 47 55 62 61 61 66 59 51 37 23 26 34 42 36 37 31 31 28 27 25 23 20 15 13 10 9 10 9 9 9 9 9 9 9 9 12 9 9 10 11 13 16 20
27 30 30 29 29 29 30 31 32 35 41 48 56 61 60 64 62 58 46 36 28 24 30 36 32 32 30 25 30 31 25 24 21 17 14 11 10 9 9 9 12 10 10 9 10 10 10 11 11 15 16 18 20 22
28 26 25 25 26 26 28 31 34 39 42 53 57 57 59 63 61 54 44 35 25 36 29 32 30 30 30 26 25 27 26 25 22 18 15 13 13 13 11 12 10 12 9 11 10 12 12 13 16 17 15 19 22 24
24 21 22 23 25 27 30 34 37 44 50 49 52 59 62 62 56 53 36 25 10 22 26 28 28 28 29 30 27 24 26 22 21 19 17 16 14 15 14 13 12 12 11 14 15 17 16 14 15 17 20 21 23 24
21 22 24 25 29 31 35 38 42 45 45 51 55 58 59 56 49 34 36 23 18 20 22 26 25 25 27 29 29 28 27 26 24 21 19 18 16 15 15 15 15 16 16 16 16 14 17 17 19 21 21 22 23 23
25 26 28 28 31 33 35 39 44 47 52 52 54 53 53 51 40 30 24 22 20 20 19 23 24 23 26 27 27 28 28 26 25 23 21 19 18 18 17 17 15 15 16 17 18 19 20 19 19 20 20 22 23 24
31 32 34 35 38 40 41 43 46 47 49 48 49 49 47 43 35 23 21 22 19 19 19 20 21 23 23 24 24 24 24 24 24 23 22 21 20 19 19 19 17 17 18 19 20 21 19 20 20 20 21 21 22 23
35 34 33 34 35 37 39 41 43 44 45 45 46 46 43 40 24 19 18 21 18 18 18 18 19 22 23 23 24 24 23 23 22 22 21 21 20 20 20 18 18 19 19 19 20 19 18 19 21 21 22 22 21 22
38 39 37 36 35 36 37 39 41 41 42 42 42 41 37 30 19 17 15 16 17 16 15 16 19 20 23 21 22 22 22 21 21 22 22 21 21 21 20 20 20 20 22 20 18 19 20 20 21 21 21 21 21 20
33 33 33 34 34 34 35 36 38 39 40 41 40 33 26 24 22 19 15 14 15 14 14 14 16 18 20 22 21 21 21 21 20 21 21 22 22 22 21 21 21 21 21 20 21 21 21 21 20 20 20 20 19 20
26 28 28 27 29 30 32 34 36 39 39 31 27 25 24 24 18 15 14 15 16 14 14 14 14 15 16 20 20 20 19 20 20 20 21 21 22 22 22 21 21 21 21 22 21 21 20 19 19 19 19 19 20 20
21 22 25 26 26 27 27 29 29 27 25 25 26 26 21 18 13 14 13 14 15 16 16 16 13 13 14 16 17 19 18 19 19 19 19 21 20 19 19 19 19 19 19 18 18 17 18 18 18 18 18 19 21 21
19 18 19 21 22 23 24 24 24 26 25 23 19 18 17 15 12 13 15 13 13 13 15 17 15 13 13 14 15 16 17 18 18 19 21 21 19 19 19 19 18 17 17 17 16 16 16 17 18 18 19 21 22 23
17 18 17 16 17 20 20 18 19 20 19 16 15 14 13 14 12 12 12 12 12 12 13 14 14 14 14 13 14 15 17 18 19 21 21 19 19 19 19 19 17 17 17 16 16 16 17 17 18 19 21 23 24 24
13 14 15 15 14 15 15 15 15 16 14 13 12 12 11 14 11 11 11 12 12 12 12 12 12 12 13 13 14 15 16 18 19 19 18 18 18 18 18 17 16 16 16 16 17 17 18 19 20 22 23 23 24 26
9 10 10 9 10 11 12 13 13 12 10 9 8 9 11 12 10 9 9 10 11 12 12 12 12 12 12 14 15 16 17 17 17 18 18 17 16 16 16 15 16 17 17 17 18 19 20 22 22 22 23 25 27 28
9 7 5 6 7 8 10 10 10 10 9 9 9 8 8 9 10 10 10 10 11 12 11 11 11 12 13 14 14 15 16 17 16 15 15 15 15 15 16 16 17 18 19 19 20 21 21 22 23 25 26 28 30 31
7 6 5 5 6 7 6 7 8 6 7 8 9 8 8 9 9 9 9 10 11 12 12 12 13 13 13 13 13 14 14 13 13 13 14 15 17 17 18 19 19 20 20 20 21 22 23 25 26 27 29 31 32 34
6 5 3 3 3 5 5 4 5 7 6 7 8 8 8 7 7 7 9 10 10 11 11 11 11 11 11 12 13 13 14 15 15 16 16 17 18 19 19 19 19 20 21 22 23 24 25 26 28 29 31 33 34 36
5 5 3 2 2 3 3 3 4 5 7 8 7 7 8 9 10 10 10 10 10 11 11 12 13 13 14 14 15 16 16 17 17 17 18 18 18 18 20 21 22 22 23 24 25 26 27 28 30 31 33 35 36 37
3 3 3 2 1 1 2 3 3 4 6 6 6 7 7 8 8 9 10 9 9 11 11 11 12 13 14 15 16 16 17 18 19 20 20 20 21 21 21 22 23 24 25 25 26 27 28 30 32 34 35 36 37 38
3 3 2 3 1 2 2 3 4 5 6 6 7 8 8 9 9 10 10 9 10 11 12 14 15 16 16 17 18 18 18 18 19 20 20 21 21 22 23 24 25 25 25 26 27 28 30 32 33 35 36 37 38 39
4 4 4 5 3 3 4 6 5 7 8 9 10 10 10 11 12 12 11 12 12 14 15 16 16 17 17 18 19 19 20 20 20 20 20 21 22 23 24 24 24 24 25 27 29 30 32 33 33 35 36 38 39 39
6 5 6 6 6 5 7 7 7 7 8 9 10 11 11 12 13 12 12 13 14 15 16 16 17 17 18 18 19 20 20 20 20 20 21 22 22 22 21 22 23 25 27 28 30 31 32 33 35 36 37 38 38 38
6 9 8 8 8 7 7 8 9 8 8 9 10 10 11 13 12 12 12 13 14 14 15 16 16 16 16 16 17 17 17 18 18 19 19 20 20 21 22 23 24 26 27 29 30 32 33 35 36 37 38 38 39 39
7 11 9 9 9 9 9 9 9 9 9 9 10 11 12 12 12 11 13 13 14 15 15 16 16 16 16 17 17 18 18 19 18 18 19 19 20 21 22 23 24 26 29 30 32 34 35 36 37 38 38 38 38 38
8 9 9 9 9 8 7 8 8 8 8 9 10 11 11 11 11 11 12 14 14 15 16 16 16 16 16 17 17 17 17 17 18 18 19 20 21 22 24 25 27 29 32 33 34 35 37 37 38 38 38 38 38 37
7 9 8 9 9 9 7 8 8 8 9 10 12 11 12 12 13 14 15 16 16 17 17 17 18 18 18 18 19 19 20 20 21 21 21 22 23 24 26 28 30 32 33 34 35 36 37 37 38 38 37 37 36 34
7 9 9 10 9 9 9 10 10 10 13 13 14 13 13 14 16 16 17 18 18 18 18 19 19 19 19 19 19 20 20 20 21 22 23 24 26 27 30 31 33 34 35 36 37 37 37 37 36 35 34 32 30 30
8 10 10 11 11 11 12 13 13 14 14 14 14 14 14 14 15 16 17 17 17 18 18 18 19 19 19 19 19 19 20 20 22 23 25 27 30 32 33 34 35 36 36 36 36 36 35 33 32 31 30 29 29 28
11 12 12 13 13 14 15 16 15 15 15 15 15 14 15 15 16 16 16 17 17 17 16 16 16 16 17 17 19 20 21 23 25 27 29 31 33 35 36 37 37 36 36 35 35 34 33 32 31 31 30 30 29 29
12 13 15 15 15 16 16 16 16 16 15 15 15 15 15 15 14 15 15 15 13 13 13 14 16 17 18 20 21 23 25 28 30 32 34 36 36 37 37 37 36 35 35 35 34 33 32 32 32 31 31 30 30 29
13 14 15 15 15 15 15 16 14 13 13 13 13 13 12 12 11 12 12 13 14 15 16 17 19 20 22 24 26 28 30 33 35 36 37 36 37 36 35 35 35 35 35 34 33 33 33 32 32 31 31 30 29 28
Wind_Direction
173 177 181 184 188 192 195 198 198 197 193 189 186 184 185 186 184 187 187 195 178 186 194 195 196 196 197 198 198 193 194 201 202 206 210 214 217 221 226 216 211 214 214 230 234 247 262 253 263 271 279 287 296 298
160 170 178 185 189 192 195 194 191 188 183 182 180 181 182 180 182 184 189 192 190 200 185 188 192 194 199 203 202 200 204 201 205 209 215 219 223 228 230 231 227 233 232 238 235 257 259 259 279 285 288 293 295 299
135 144 155 165 173 178 181 179 176 175 177 173 174 176 177 177 176 178 178 180 213 192 178 186 194 196 199 202 199 201 206 204 207 214 216 225 226 225 228 238 233 240 245 253 262 273 266 272 282 285 295 301 302 303
130 135 144 151 156 158 162 163 164 161 162 168 172 172 171 173 175 181 190 201 150 166 181 193 198 200 205 207 206 206 206 208 210 217 225 228 229 231 236 246 243 252 243 256 263 269 281 284 291 293 298 302 305 305
122 132 137 142 145 148 147 151 157 161 162 163 162 164 167 171 172 179 197 208 205 203 195 194 197 205 207 208 209 210 210 212 217 224 229 231 233 236 246 251 254 250 262 263 272 276 280 285 290 295 298 302 304 304
109 117 128 135 143 146 145 148 152 152 151 155 157 163 167 172 177 180 188 189 193 193 196 199 203 205 205 206 208 210 213 216 221 225 231 234 239 242 245 250 255 258 268 274 274 281 281 281 289 293 297 300 303 304
105 112 117 122 126 130 132 136 142 148 153 157 161 162 165 168 173 179 188 191 194 198 199 199 202 205 202 203 208 209 212 216 222 227 234 236 239 242 248 255 252 263 270 272 278 279 278 282 286 291 295 297 301 303
98 108 117 125 129 134 137 141 144 147 151 154 158 161 164 168 166 172 180 187 193 195 196 200 206 203 208 208 209 215 215 218 227 230 234 238 242 248 252 251 260 269 268 275 278 279 278 281 286 290 292 295 299 301
90 97 105 116 125 132 138 143 146 149 152 155 157 160 163 174 180 173 170 180 185 188 198 203 203 207 207 210 211 213 218 222 229 232 236 239 244 248 254 255 262 269 270 271 276 277 279 281 284 288 291 294 297 298
88 94 102 108 115 125 133 140 146 149 151 153 155 163 171 177 175 182 187 190 186 195 202 204 206 206 209 210 213 214 223 225 231 237 239 244 248 251 256 262 265 269 269 268 273 276 277 279 281 284 290 294 297 300
92 94 100 111 117 122 128 136 142 147 151 160 166 171 170 174 183 191 196 199 201 200 202 202 202 201 210 210 212 220 222 229 233 237 240 247 252 252 255 261 266 270 271 271 272 274 274 277 280 286 289 293 295 299
101 103 99 109 115 121 132 141 148 154 161 163 163 163 170 178 188 189 196 202 208 213 211 208 206 206 210 212 216 221 227 232 239 238 245 251 256 252 255 260 264 267 268 269 269 270 275 279 282 286 290 292 296 298
96 111 115 110 115 126 128 135 144 150 155 157 165 175 181 190 187 194 188 199 199 200 204 208 210 215 218 222 225 228 232 239 239 249 253 260 255 255 257 259 260 262 263 264 268 272 276 281 286 287 290 294 296 300
94 100 118 134 121 130 134 136 146 153 159 168 171 172 183 194 195 198 205 203 205 206 206 207 217 225 227 230 235 236 243 244 248 253 257 261 256 255 255 256 256 261 266 265 269 272 276 280 284 289 293 295 298 300
106 107 109 115 134 154 149 144 145 153 159 164 173 180 186 188 192 203 207 207 210 214 216 216 224 230 234 236 243 242 247 249 254 261 265 260 252 252 252 254 257 259 265 268 272 276 279 282 287 291 295 297 299 301
115 116 113 119 127 138 157 175 179 178 180 182 182 185 191 197 204 209 212 212 218 220 226 231 234 239 243 245 248 251 252 259 264 268 264 255 251 248 249 256 258 260 267 271 275 279 283 287 289 291 295 298 298 302
101 118 119 137 147 148 157 161 169 181 191 198 199 199 196 199 210 218 226 231 229 225 231 242 247 254 253 255 255 261 262 266 264 264 258 248 243 250 256 261 265 268 272 276 279 283 286 288 290 293 296 300 301 303
107 102 112 131 147 142 149 184 193 198 192 199 200 210 208 216 226 232 235 238 236 238 246 249 254 258 261 261 261 261 260 261 263 260 256 253 256 259 263 267 268 271 276 279 281 284 287 289 293 296 298 301 302 304
93 98 108 120 144 171 189 198 204 199 197 202 207 213 218 222 228 239 247 249 243 244 243 251 258 260 259 262 267 263 262 264 266 268 267 263 263 266 268 270 272 276 278 280 283 287 290 293 295 297 299 301 302 304
89 72 67 76 175 186 186 202 198 203 217 217 225 228 234 242 251 256 259 258 253 249 252 256 260 261 263 269 274 270 267 266 267 268 269 268 266 267 271 273 276 278 280 283 287 289 290 293 297 299 301 302 303 305
56 35 27 51 83 114 191 233 220 211 215 226 234 234 244 254 258 261 262 261 257 260 255 262 267 266 272 273 276 276 275 272 271 272 268 269 271 273 275 277 279 280 282 285 287 290 293 296 298 300 301 302 304 305
19 359 358 358 334 305 288 300 252 247 249 246 254 254 254 260 261 268 264 263 259 268 267 270 275 275 276 279 279 281 278 276 278 278 277 273 274 276 278 280 281 283 285 287 289 292 294 297 299 300 302 303 304 305
4 358 356 347 326 312 294 294 278 279 264 263 266 264 267 266 270 270 263 266 266 278 279 277 277 279 279 280 281 282 282 280 278 278 276 276 279 281 281 283 285 284 286 289 292 294 296 298 299 301 302 304 305 306
1 345 344 333 329 308 297 303 295 288 281 276 273 270 273 273 274 271 270 271 277 282 284 286 285 278 284 286 285 285 284 281 280 280 281 280 280 282 282 282 284 287 290 291 294 296 298 299 301 302 303 305 305 306
342 341 332 336 323 319 310 305 302 291 288 286 279 279 279 277 275 274 273 274 282 286 287 290 287 288 287 287 288 290 291 287 283 282 284 282 280 280 282 284 287 291 294 295 297 299 300 301 302 303 304 304 305 306
336 338 330 326 324 316 309 303 301 296 289 285 286 283 281 280 278 278 277 283 285 288 290 291 292 289 290 291 289 290 290 289 285 284 286 286 287 287 287 289 289 292 297 298 299 300 301 302 303 303 304 304 305 305
338 338 337 331 325 316 312 311 302 300 296 294 290 292 285 280 281 280 277 286 286 287 289 291 291 290 290 289 290 291 291 291 290 288 288 290 292 293 293 294 295 296 298 299 300 301 302 303 303 303 303 304 304 305
334 336 336 332 331 329 320 314 309 307 300 298 293 293 292 291 286 285 285 287 286 286 287 289 290 289 289 289 290 290 290 289 288 288 288 290 293 295 297 298 298 299 300 301 302 302 303 303 303 303 304 304 304 304
332 326 325 327 322 321 318 312 305 301 302 298 295 292 290 289 290 288 288 287 287 286 286 288 288 287 287 289 290 292 293 293 293 293 294 294 294 297 300 300 300 301 301 302 303 303 303 303 303 303 303 304 305 306
329 323 318 317 313 311 308 307 304 301 302 299 293 290 292 291 293 293 291 291 290 289 290 290 290 290 290 290 290 291 293 296 298 297 297 297 299 300 301 301 301 302 302 302 303 304 304 304 304 304 304 303 304 305
314 313 312 311 308 307 305 304 301 300 299 299 300 295 291 290 292 297 297 295 293 293 292 292 293 295 295 295 296 296 295 298 300 300 301 300 301 301 301 302 301 301 301 302 303 303 302 302 302 302 302 303 303 304
317 316 312 310 309 308 307 305 302 299 297 296 297 295 291 289 294 294 298 300 296 297 298 298 298 298 299 298 299 299 298 299 301 302 302 302 302 302 302 302 301 301 301 301 301 301 300 300 300 300 300 301 301 302
318 318 317 315 311 310 310 308 303 302 302 301 301 301 300 299 299 297 299 302 300 300 300 300 300 300 300 301 302 302 302 302 303 303 303 303 303 302 302 302 302 301 301 300 300 300 300 299 299 299 299 299 299 299